BAW425 EGKK-EIDW

Flight info

Callsign BAW425
Flight time 1h 0m
Altitude 30000
Route IMVUR N63 VOUGA N14 NUBRI/N0484F340 N14 BIBPE DCT OKTAD DCT MEDOG DCT KRAGY DCT PEMOB M17 VATRY VATRY4L
Aircraft A35K/H-SDE2E3GHIJ3J4J5LM1ORWXY/LB1D1

Departure

Time 2026-05-05 16:27
Airport London Gatwick Airport (EGKK)

Arrival

Time 2026-05-05 17:27
Airport Dublin Airport (EIDW)
Time Latitude Longitude Altitude Speed Heading
2026-05-05 15:53 51.16055 -0.18030 211 ft 0 kts 78°
2026-05-05 15:58 51.16056 -0.18019 211 ft 0 kts 78°
2026-05-05 16:09 51.16056 -0.18021 211 ft 2 kts 78°
2026-05-05 16:09 51.16051 -0.18060 220 ft 4 kts 77°
2026-05-05 16:09 51.16047 -0.18088 218 ft 4 kts 77°
2026-05-05 16:09 51.16044 -0.18122 217 ft 4 kts 103°
2026-05-05 16:10 51.16049 -0.18147 218 ft 4 kts 144°
2026-05-05 16:10 51.16070 -0.18162 222 ft 3 kts 167°
2026-05-05 16:10 51.16091 -0.18169 219 ft 4 kts 168°
2026-05-05 16:10 51.16116 -0.18178 219 ft 2 kts 168°
2026-05-05 16:11 51.16117 -0.18178 219 ft 0 kts 168°
2026-05-05 16:13 51.16012 -0.18140 220 ft 13 kts 167°
2026-05-05 16:13 51.15914 -0.18105 213 ft 16 kts 167°
2026-05-05 16:13 51.15799 -0.18066 218 ft 18 kts 168°
2026-05-05 16:14 51.15678 -0.18140 218 ft 11 kts 253°
2026-05-05 16:14 51.15597 -0.18228 215 ft 7 kts 169°
2026-05-05 16:15 51.15456 -0.18173 222 ft 13 kts 161°
2026-05-05 16:15 51.15266 -0.18106 214 ft 13 kts 168°
2026-05-05 16:16 51.15185 -0.18308 218 ft 15 kts 257°
2026-05-05 16:16 51.15132 -0.18694 210 ft 21 kts 258°
2026-05-05 16:17 51.15068 -0.19192 216 ft 23 kts 257°
2026-05-05 16:17 51.15039 -0.19403 218 ft 21 kts 257°
2026-05-05 16:18 51.14976 -0.19851 215 ft 21 kts 257°
2026-05-05 16:18 51.14943 -0.20092 219 ft 24 kts 257°
2026-05-05 16:18 51.14881 -0.20543 220 ft 19 kts 257°
2026-05-05 16:19 51.14851 -0.20760 214 ft 21 kts 257°
2026-05-05 16:19 51.14823 -0.20966 217 ft 14 kts 257°
2026-05-05 16:19 51.14813 -0.21038 221 ft 0 kts 257°
2026-05-05 16:20 51.14805 -0.21089 218 ft 6 kts 257°
2026-05-05 16:20 51.14770 -0.21283 215 ft 11 kts 258°
2026-05-05 16:21 51.14745 -0.21384 215 ft 1 kts 216°
2026-05-05 16:22 51.14679 -0.21373 220 ft 7 kts 147°
2026-05-05 16:22 51.14631 -0.21334 211 ft 0 kts 165°
2026-05-05 16:25 51.14627 -0.21332 211 ft 2 kts 167°
2026-05-05 16:26 51.14530 -0.21240 219 ft 11 kts 118°
2026-05-05 16:26 51.14531 -0.21107 218 ft 1 kts 79°
2026-05-05 16:27 51.14533 -0.21095 218 ft 6 kts 79°
2026-05-05 16:27 51.14593 -0.20639 217 ft 80 kts 77°
2026-05-05 16:27 51.14763 -0.19402 217 ft 146 kts 78°
2026-05-05 16:27 51.15003 -0.17746 920 ft 148 kts 76°
2026-05-05 16:28 51.15237 -0.16178 1701 ft 156 kts 75°
2026-05-05 16:28 51.15502 -0.14356 2098 ft 180 kts 75°
2026-05-05 16:28 51.15780 -0.12277 2582 ft 200 kts 77°
2026-05-05 16:28 51.16082 -0.09983 2910 ft 220 kts 76°
2026-05-05 16:29 51.16483 -0.07632 2978 ft 222 kts 65°
2026-05-05 16:29 51.17439 -0.05761 3003 ft 219 kts 33°
2026-05-05 16:29 51.18884 -0.05082 3001 ft 220 kts
2026-05-05 16:29 51.20389 -0.05488 3242 ft 222 kts 345°
2026-05-05 16:30 51.21763 -0.06670 3876 ft 230 kts 319°
2026-05-05 16:30 51.22619 -0.08806 4765 ft 239 kts 290°
2026-05-05 16:30 51.22704 -0.11543 5363 ft 258 kts 262°
2026-05-05 16:30 51.22350 -0.14408 6203 ft 265 kts 259°
2026-05-05 16:31 51.21974 -0.17278 7134 ft 268 kts 259°
2026-05-05 16:31 51.21608 -0.20221 8099 ft 273 kts 259°
2026-05-05 16:31 51.21247 -0.23216 9097 ft 276 kts 259°
2026-05-05 16:31 51.20888 -0.26253 10085 ft 280 kts 259°
2026-05-05 16:32 51.20524 -0.29349 10964 ft 286 kts 259°
2026-05-05 16:32 51.20154 -0.32509 11837 ft 292 kts 259°
2026-05-05 16:32 51.19779 -0.35717 12765 ft 297 kts 259°
2026-05-05 16:32 51.19368 -0.38959 13678 ft 302 kts 258°
2026-05-05 16:33 51.18922 -0.42282 14400 ft 308 kts 258°
2026-05-05 16:33 51.18479 -0.45604 14823 ft 310 kts 258°
2026-05-05 16:33 51.18031 -0.48994 15240 ft 312 kts 258°
2026-05-05 16:33 51.17561 -0.52400 15962 ft 315 kts 255°
2026-05-05 16:34 51.16901 -0.55721 16678 ft 324 kts 250°
2026-05-05 16:34 51.16055 -0.59161 17121 ft 341 kts 247°
2026-05-05 16:34 51.15084 -0.62731 17578 ft 358 kts 245°
2026-05-05 16:34 51.14046 -0.66435 18067 ft 373 kts 245°
2026-05-05 16:35 51.12974 -0.70273 18528 ft 386 kts 245°
2026-05-05 16:35 51.11887 -0.74224 19170 ft 393 kts 246°
2026-05-05 16:35 51.10800 -0.78227 19903 ft 398 kts 246°
2026-05-05 16:35 51.09818 -0.82373 20651 ft 403 kts 252°
2026-05-05 16:36 51.09170 -0.86744 21383 ft 409 kts 260°
2026-05-05 16:36 51.08951 -0.91295 22110 ft 415 kts 269°
2026-05-05 16:36 51.09220 -0.95888 22863 ft 420 kts 279°
2026-05-05 16:36 51.09985 -1.00366 23581 ft 426 kts 289°
2026-05-05 16:37 51.11263 -1.04673 24207 ft 433 kts 298°
2026-05-05 16:37 51.13027 -1.08619 24829 ft 440 kts 309°
2026-05-05 16:37 51.15228 -1.12045 25429 ft 447 kts 319°
2026-05-05 16:37 51.17796 -1.14809 26019 ft 454 kts 329°
2026-05-05 16:38 51.20716 -1.16841 26621 ft 460 kts 340°
2026-05-05 16:38 51.23876 -1.18006 27200 ft 467 kts 351°
2026-05-05 16:38 51.27056 -1.18979 27742 ft 471 kts 345°
2026-05-05 16:38 51.30189 -1.20555 28326 ft 473 kts 336°
2026-05-05 16:39 51.33199 -1.22706 28890 ft 476 kts 335°
2026-05-05 16:39 51.36317 -1.24641 29459 ft 481 kts 338°
2026-05-05 16:39 51.39465 -1.26552 29891 ft 485 kts 337°
2026-05-05 16:39 51.42599 -1.28478 29969 ft 492 kts 337°
2026-05-05 16:40 51.49050 -1.32419 29958 ft 495 kts 338°
2026-05-05 16:40 51.55499 -1.36310 29962 ft 494 kts 338°
2026-05-05 16:41 51.61697 -1.40810 29968 ft 489 kts 322°
2026-05-05 16:41 51.64183 -1.44527 29967 ft 484 kts 307°
2026-05-05 16:41 51.65940 -1.49080 29970 ft 479 kts 292°
2026-05-05 16:42 51.68242 -1.59106 29966 ft 478 kts 288°
2026-05-05 16:42 51.70212 -1.69352 29971 ft 476 kts 281°
2026-05-05 16:43 51.71258 -1.79862 29972 ft 475 kts 276°
2026-05-05 16:43 51.72330 -1.90396 29969 ft 476 kts 280°
2026-05-05 16:44 51.73848 -2.00745 29977 ft 477 kts 282°
2026-05-05 16:44 51.75449 -2.11105 29993 ft 477 kts 282°
2026-05-05 16:45 51.77019 -2.21556 29994 ft 477 kts 282°
2026-05-05 16:45 51.78540 -2.31956 29991 ft 477 kts 281°
2026-05-05 16:46 51.80044 -2.42370 29989 ft 478 kts 281°
2026-05-05 16:46 51.81554 -2.52887 29988 ft 479 kts 281°
2026-05-05 16:47 51.83035 -2.63419 30001 ft 479 kts 281°
2026-05-05 16:47 51.84438 -2.73904 30010 ft 480 kts 281°
2026-05-05 16:48 51.85839 -2.84445 30015 ft 481 kts 281°
2026-05-05 16:48 51.87249 -2.95046 30016 ft 482 kts 281°
2026-05-05 16:49 51.88658 -3.05686 30014 ft 483 kts 281°
2026-05-05 16:49 51.90052 -3.16279 30006 ft 484 kts 281°
2026-05-05 16:50 51.91451 -3.27005 30003 ft 486 kts 281°
2026-05-05 16:50 51.92840 -3.37735 30000 ft 487 kts 281°
2026-05-05 16:51 51.94217 -3.48456 29995 ft 489 kts 281°
2026-05-05 16:51 51.95599 -3.59275 30001 ft 490 kts 281°
2026-05-05 16:52 51.96977 -3.70158 30007 ft 492 kts 281°
2026-05-05 16:52 51.98336 -3.81005 30003 ft 493 kts 281°
2026-05-05 16:53 51.99687 -3.91867 30005 ft 494 kts 281°
2026-05-05 16:53 52.00815 -4.00998 30011 ft 495 kts 282°
2026-05-05 16:54 52.02380 -4.13764 30015 ft 496 kts 282°
2026-05-05 16:54 52.03497 -4.22947 30022 ft 498 kts 282°
2026-05-05 16:55 52.04831 -4.34004 30021 ft 499 kts 282°
2026-05-05 16:55 52.06160 -4.45111 30023 ft 501 kts 282°
2026-05-05 16:56 52.07484 -4.56271 30025 ft 503 kts 282°
2026-05-05 16:56 52.08799 -4.67455 30029 ft 505 kts 282°
2026-05-05 16:57 52.10105 -4.78653 30031 ft 506 kts 282°
2026-05-05 16:57 52.11411 -4.89947 30035 ft 508 kts 283°
2026-05-05 16:58 52.12706 -5.01205 30037 ft 510 kts 283°
2026-05-05 16:58 52.13352 -5.06866 29827 ft 505 kts 283°
2026-05-05 16:58 52.13987 -5.12486 28908 ft 506 kts 283°
2026-05-05 16:59 52.14893 -5.18008 27963 ft 502 kts 295°
2026-05-05 16:59 52.16586 -5.22848 27290 ft 491 kts 311°
2026-05-05 16:59 52.18951 -5.26744 26655 ft 479 kts 326°
2026-05-05 16:59 52.21803 -5.29418 26015 ft 466 kts 342°
2026-05-05 17:00 52.24879 -5.30708 25390 ft 455 kts 356°
2026-05-05 17:00 52.28030 -5.31245 24756 ft 451 kts 357°
2026-05-05 17:00 52.31140 -5.31944 24109 ft 450 kts 352°
2026-05-05 17:00 52.34183 -5.33153 23450 ft 449 kts 346°
2026-05-05 17:01 52.37092 -5.34834 22731 ft 448 kts 341°
2026-05-05 17:01 52.39900 -5.36840 21738 ft 439 kts 337°
2026-05-05 17:01 52.42650 -5.39072 20943 ft 440 kts 334°
2026-05-05 17:01 52.45348 -5.41404 20297 ft 435 kts 334°
2026-05-05 17:02 52.48026 -5.43707 19663 ft 431 kts 334°
2026-05-05 17:02 52.50646 -5.45932 19020 ft 428 kts 334°
2026-05-05 17:02 52.53304 -5.48169 18369 ft 425 kts 334°
2026-05-05 17:02 52.55985 -5.50191 17623 ft 417 kts 341°
2026-05-05 17:03 52.58668 -5.51687 16721 ft 395 kts 344°
2026-05-05 17:03 52.61185 -5.52968 16161 ft 371 kts 344°
2026-05-05 17:03 52.63578 -5.54185 15687 ft 348 kts 344°
2026-05-05 17:03 52.65822 -5.55330 15242 ft 327 kts 344°
2026-05-05 17:04 52.67960 -5.56427 14611 ft 316 kts 343°
2026-05-05 17:04 52.70030 -5.57488 13848 ft 312 kts 343°
2026-05-05 17:04 52.72093 -5.58547 13002 ft 307 kts 343°
2026-05-05 17:04 52.74120 -5.59594 12174 ft 303 kts 342°
2026-05-05 17:05 52.76128 -5.60639 11364 ft 300 kts 342°
2026-05-05 17:05 52.78108 -5.61672 10575 ft 296 kts 342°
2026-05-05 17:05 52.80044 -5.62682 9794 ft 293 kts 342°
2026-05-05 17:05 52.81971 -5.63690 8969 ft 289 kts 342°
2026-05-05 17:06 52.83849 -5.64671 8485 ft 277 kts 342°
2026-05-05 17:06 52.85695 -5.65637 8267 ft 274 kts 341°
2026-05-05 17:06 52.87478 -5.66570 8123 ft 264 kts 341°
2026-05-05 17:06 52.89194 -5.67467 7988 ft 253 kts 341°
2026-05-05 17:07 52.90833 -5.68326 7810 ft 246 kts 341°
2026-05-05 17:07 52.92445 -5.69173 7578 ft 241 kts 341°
2026-05-05 17:07 52.94040 -5.70011 7346 ft 239 kts 341°
2026-05-05 17:07 52.95625 -5.70842 7116 ft 238 kts 341°
2026-05-05 17:08 52.97182 -5.71662 6996 ft 237 kts 341°
2026-05-05 17:08 52.98758 -5.72492 6988 ft 237 kts 341°
2026-05-05 17:08 53.00335 -5.73323 6989 ft 237 kts 341°
2026-05-05 17:08 53.01909 -5.74152 6986 ft 236 kts 341°
2026-05-05 17:09 53.03463 -5.74972 6991 ft 236 kts 341°
2026-05-05 17:09 53.05035 -5.75801 6992 ft 236 kts 341°
2026-05-05 17:09 53.06605 -5.76630 6990 ft 236 kts 341°
2026-05-05 17:09 53.08175 -5.77460 6989 ft 236 kts 341°
2026-05-05 17:10 53.09731 -5.78282 6994 ft 236 kts 341°
2026-05-05 17:10 53.11302 -5.79109 6995 ft 237 kts 341°
2026-05-05 17:10 53.12932 -5.79526 6982 ft 240 kts
2026-05-05 17:10 53.14507 -5.78646 6978 ft 243 kts 33°
2026-05-05 17:11 53.15636 -5.76533 6996 ft 245 kts 57°
2026-05-05 17:11 53.16472 -5.74079 7054 ft 247 kts 60°
2026-05-05 17:11 53.17341 -5.71434 7030 ft 271 kts 59°
2026-05-05 17:11 53.18269 -5.68653 6869 ft 271 kts 59°
2026-05-05 17:12 53.19165 -5.65990 6856 ft 256 kts 59°
2026-05-05 17:12 53.20195 -5.63689 6828 ft 242 kts 41°
2026-05-05 17:12 53.21487 -5.61947 6846 ft 243 kts 34°
2026-05-05 17:12 53.22857 -5.60276 6849 ft 244 kts 34°
2026-05-05 17:13 53.24231 -5.58601 6849 ft 244 kts 34°
2026-05-05 17:13 53.25598 -5.56925 6850 ft 244 kts 34°
2026-05-05 17:13 53.26964 -5.55243 6822 ft 244 kts 34°
2026-05-05 17:13 53.28315 -5.53578 6825 ft 243 kts 34°
2026-05-05 17:14 53.29827 -5.52383 6832 ft 241 kts 13°
2026-05-05 17:14 53.31462 -5.51750 6830 ft 241 kts 10°
2026-05-05 17:14 53.33105 -5.51175 6833 ft 241 kts 10°
2026-05-05 17:14 53.34748 -5.50587 6833 ft 241 kts 10°
2026-05-05 17:15 53.36390 -5.49988 6834 ft 241 kts 11°
2026-05-05 17:15 53.38005 -5.49393 6832 ft 241 kts 11°
2026-05-05 17:15 53.39647 -5.48808 6828 ft 240 kts
2026-05-05 17:15 53.41305 -5.48928 6829 ft 237 kts 348°
2026-05-05 17:16 53.42923 -5.49479 6832 ft 238 kts 346°
2026-05-05 17:16 53.44542 -5.50061 6828 ft 238 kts 346°
2026-05-05 17:16 53.46166 -5.50633 6830 ft 238 kts 347°
2026-05-05 17:16 53.47767 -5.51187 6831 ft 238 kts 347°
2026-05-05 17:17 53.49391 -5.51744 6833 ft 238 kts 347°
2026-05-05 17:17 53.51008 -5.52351 6823 ft 238 kts 341°
2026-05-05 17:17 53.52419 -5.53741 6817 ft 235 kts 313°
2026-05-05 17:17 53.53108 -5.56151 6820 ft 232 kts 275°
2026-05-05 17:18 53.52861 -5.58782 6835 ft 233 kts 254°
2026-05-05 17:18 53.52401 -5.61412 6813 ft 234 kts 255°
2026-05-05 17:18 53.51946 -5.64021 6529 ft 232 kts 255°
2026-05-05 17:18 53.51485 -5.66630 6194 ft 232 kts 254°
2026-05-05 17:19 53.50960 -5.69203 5858 ft 232 kts 252°
2026-05-05 17:19 53.50413 -5.71744 5555 ft 231 kts 252°
2026-05-05 17:19 53.49858 -5.74266 5252 ft 230 kts 252°
2026-05-05 17:19 53.49297 -5.76779 4945 ft 229 kts 252°
2026-05-05 17:20 53.48732 -5.79280 4623 ft 229 kts 251°
2026-05-05 17:20 53.48140 -5.81765 4277 ft 230 kts 247°
2026-05-05 17:20 53.47202 -5.83928 3930 ft 234 kts 229°
2026-05-05 17:20 53.46057 -5.85865 3592 ft 234 kts 227°
2026-05-05 17:21 53.44881 -5.87771 3264 ft 235 kts 226°
2026-05-05 17:21 53.43710 -5.89670 3029 ft 233 kts 226°
2026-05-05 17:21 53.42544 -5.91568 3007 ft 233 kts 226°
2026-05-05 17:22 53.39961 -5.94813 3009 ft 222 kts 213°
2026-05-05 17:22 53.38652 -5.95988 3019 ft 204 kts 207°
2026-05-05 17:22 53.37470 -5.97035 2994 ft 183 kts 223°
2026-05-05 17:22 53.37003 -5.98772 2997 ft 158 kts 277°
2026-05-05 17:23 53.37498 -6.00232 3011 ft 140 kts 323°
2026-05-05 17:23 53.38232 -6.01241 3008 ft 134 kts 322°
2026-05-05 17:23 53.38949 -6.02240 3013 ft 134 kts 321°
2026-05-05 17:23 53.39585 -6.03377 3012 ft 136 kts 310°
2026-05-05 17:24 53.40083 -6.04734 2992 ft 136 kts 300°
2026-05-05 17:24 53.40448 -6.06188 2922 ft 135 kts 294°
2026-05-05 17:24 53.40723 -6.07697 2804 ft 135 kts 288°
2026-05-05 17:24 53.40929 -6.09244 2634 ft 135 kts 284°
2026-05-05 17:25 53.41098 -6.10789 2408 ft 138 kts 283°
2026-05-05 17:25 53.41195 -6.11857 2201 ft 141 kts 281°
2026-05-05 17:25 53.41367 -6.14078 1808 ft 146 kts 281°
2026-05-05 17:25 53.41500 -6.15782 1530 ft 145 kts 278°
2026-05-05 17:26 53.41552 -6.17454 1267 ft 140 kts 275°
2026-05-05 17:26 53.41631 -6.19041 1038 ft 138 kts 278°
2026-05-05 17:26 53.41759 -6.20626 848 ft 138 kts 280°
2026-05-05 17:26 53.41861 -6.22237 650 ft 140 kts 275°
2026-05-05 17:27 53.41941 -6.23876 410 ft 139 kts 279°
2026-05-05 17:27 53.42042 -6.25476 238 ft 136 kts 277°
2026-05-05 17:27 53.42125 -6.26903 220 ft 99 kts 275°
2026-05-05 17:27 53.42164 -6.27601 223 ft 36 kts 275°
2026-05-05 17:28 53.42221 -6.27917 223 ft 17 kts 297°
2026-05-05 17:28 53.42285 -6.28088 223 ft 16 kts 315°
2026-05-05 17:28 53.42350 -6.28119 223 ft 9 kts 22°
2026-05-05 17:28 53.42364 -6.28064 220 ft 4 kts 93°
2026-05-05 17:29 53.42360 -6.27990 219 ft 8 kts 95°
2026-05-05 17:29 53.42353 -6.27872 223 ft 12 kts 95°
2026-05-05 17:29 53.42345 -6.27713 218 ft 15 kts 95°
2026-05-05 17:29 53.42334 -6.27517 217 ft 18 kts 95°
2026-05-05 17:30 53.42322 -6.27290 224 ft 21 kts 95°
2026-05-05 17:30 53.42308 -6.27035 224 ft 23 kts 95°
2026-05-05 17:30 53.42293 -6.26754 221 ft 25 kts 95°
2026-05-05 17:30 53.42275 -6.26452 223 ft 25 kts 96°
2026-05-05 17:31 53.42259 -6.26164 217 ft 26 kts 95°
2026-05-05 17:31 53.42243 -6.25858 217 ft 28 kts 96°
2026-05-05 17:31 53.42224 -6.25528 221 ft 29 kts 95°
2026-05-05 17:31 53.42206 -6.25196 223 ft 26 kts 95°
2026-05-05 17:32 53.42190 -6.24913 222 ft 23 kts 95°
2026-05-05 17:32 53.42209 -6.24781 223 ft 5 kts 24°
2026-05-05 17:32 53.42246 -6.24786 223 ft 7 kts 347°
2026-05-05 17:32 53.42305 -6.24821 219 ft 11 kts 338°
2026-05-05 17:33 53.42382 -6.24876 221 ft 14 kts 336°
2026-05-05 17:33 53.42478 -6.24946 222 ft 16 kts 336°
2026-05-05 17:33 53.42542 -6.24934 224 ft 6 kts 55°
2026-05-05 17:33 53.42549 -6.24870 223 ft 6 kts 103°
2026-05-05 17:34 53.42517 -6.24817 218 ft 8 kts 148°
2026-05-05 17:34 53.42459 -6.24767 223 ft 11 kts 153°
2026-05-05 17:34 53.42424 -6.24661 224 ft 11 kts 78°
2026-05-05 17:34 53.42431 -6.24544 222 ft 7 kts 114°
2026-05-05 17:35 53.42410 -6.24499 222 ft 1 kts 132°
2026-05-05 17:35 53.42396 -6.24474 222 ft 4 kts 134°
2026-05-05 17:35 53.42392 -6.24468 219 ft 0 kts 134°